Location: Taukkyan
(23.1052°N, 94.0030°E)
Time: 22:49:53
(UTC+00:00)

SJ-6B - Pass Details

Date: 06 July 2020
Orbit: 510 x 581 km, 97.6° (Epoch: 05 August)

Event Time Altitude Azimuth Distance (km) Brightness Sun altitude
Exits shadow 13:30:18 16° 147° (SSE) 1,464 4.4 -12.3°
Maximum altitude 13:33:12 48° 76° (ENE) 723 3.1 -12.9°
Drops below altitude 10° 13:37:03 10° 2° (N) 1,845 5.9 -13.6°
Sets 13:39:15 0° 357° (N) 2,754 6.9 -14.0°
